Find Starlink 32233

NORAD ID: 60434 Int'l Des: 2024-144 Owner: SPXS Country: US Constellation: starlink operational
LEOCIRCULAR

現在のビュー

3D地球を読み込み中...

About Starlink 32233

Starlink 32233 (NORAD 60434) is a starlink constellation satellite (v2 mini) launched Aug 12, 2024 by SPXS of US. It operates in LEO, CIRCULAR orbit with a mass of 730.00 kg.

Starlink 32233について

説明を読み込み中...

次回通過

Passes for default location (London). Set your location on the main map for personalized predictions.

高度履歴

Loading altitude history...

軌道要素

1 60434U 24144K 26168.12518889 .00001149 00000-0 45148-4 0 9998
2 60434 53.1607 113.8191 0001384 96.7002 263.4158 15.34388493104557
Epoch: Jun 17, 2026 • Age: 22 hours

現在のステータス

高度 462.8 km
速度 7.64 km/s
衛星直下点 13.63°N, 160.81°W
打ち上げ日 Aug 12, 2024
運用期間 1.8 years
タイプ internet

技術仕様

分類 Payload
質量 730.00 kg
乾燥質量 700.00 kg
総質量 730.00 kg
長さ 0.30 m
直径 4.10 m
スパン 29.00 m
形状 Box + pan
製造者 SPXS
バスタイプ Starlink V2M
フェーズステータス In Orbit
所有者/国 SPXS/US

Most Searched